�ϑ��N����,2022/9/28,,,
�ϑ���,�{�� �D��,,,
�ϑ��n�_,35,,,
���x�v�ԍ�,A024,,,
,,,,
����,�C��,����,����,���l
9:30:00,-999,-999,-999,
9:31:00,-999,-999,-999,
9:32:00,27,5,1,
9:33:00,27.5,3,1,
9:34:00,27.5,0,0,
9:35:00,27.5,7,3,
9:36:00,28.1,2,1,
9:37:00,28.8,3,1,
9:38:00,28.1,2,1,
9:39:00,27.2,3,1,
9:40:00,27.8,4,2,
9:41:00,28.1,4,1,
9:42:00,28.7,3,3,
9:43:00,28.4,3,1,
9:44:00,27.9,2,1,
9:45:00,27.2,5,1,
9:46:00,27.2,5,1,�܂�
9:47:00,27.1,8,1,���܂�
9:48:00,26.3,3,2,�܂�
9:49:00,26.2,4,1,
9:50:00,26.1,3,2,����
9:51:00,27,4,1,
9:52:00,27.8,5,1,
9:53:00,27.9,5,3,
9:54:00,28.5,3,2,
9:55:00,28.9,3,3,
9:56:00,29,4,2,
9:57:00,29.2,5,2,
9:58:00,29.8,4,1,
9:59:00,29.9,2,1,
10:00:00,29.6,4,1,���܂�
10:01:00,29.2,5,1,
10:02:00,29.1,5,2,
10:03:00,28.8,6,1,����
10:04:00,29,5,2,
10:05:00,28.5,8,1,
10:06:00,28.8,0,0,
10:07:00,29,6,2,
10:08:00,29,4,2,
10:09:00,29.3,4,1,
10:10:00,30,6,2,
10:11:00,29.8,8,1,
10:12:00,29.9,6,1,
10:13:00,29.9,8,1,
10:14:00,30.1,6,2,
10:15:00,30,4,2,
10:16:00,29.7,4,1,
10:17:00,29.8,4,2,
10:18:00,30,4,1,
10:19:00,30,4,1,
10:20:00,30.1,4,2,
10:21:00,30,4,1,
10:22:00,29.8,3,2,
10:23:00,29.9,3,1,
10:24:00,29.9,5,2,
10:25:00,29.9,6,3,
10:26:00,29.8,3,2,
10:27:00,27.9,3,3,�܂�
10:28:00,27.8,5,1,
10:29:00,27.5,5,1,
10:30:00,27.7,3,1,���܂�
10:31:00,27.9,4,2,
10:32:00,27.6,1,1,
10:33:00,27.7,3,3,
10:34:00,27.6,6,1,
10:35:00,27.8,7,2,
10:36:00,28.4,7,2,
10:37:00,28.2,6,1,
10:38:00,28.2,0,0,
10:39:00,28.8,6,2,
10:40:00,28.8,5,2,
10:41:00,29,5,1,
10:42:00,28.9,5,1,
10:43:00,28.8,6,1,
10:44:00,28.8,3,1,
10:45:00,28.9,6,1,����
10:46:00,29.7,4,2,
10:47:00,29.9,4,2,
10:48:00,30,7,1,���܂�
10:49:00,30.1,0,0,
10:50:00,29.8,4,1,
10:51:00,29.2,8,2,
10:52:00,28.9,0,0,�܂�
10:53:00,28.9,6,2,
10:54:00,28.9,4,1,
10:55:00,28.5,4,1,
10:56:00,28.5,4,1,
10:57:00,28.3,5,1,
10:58:00,28.4,5,1,
10:59:00,28.2,7,1,
11:00:00,28.3,0,0,����
11:01:00,28,3,1,
11:02:00,28.3,0,0,
11:03:00,28.9,1,1,
11:04:00,29.7,4,1,����
11:05:00,30,3,3,
11:06:00,28.8,3,3,���܂�
11:07:00,28.1,3,2,
11:08:00,28,3,2,
11:09:00,28.1,6,1,
11:10:00,28.4,3,1,
11:11:00,28.7,4,1,
11:12:00,29.1,3,2,
11:13:00,28.7,4,1,
11:14:00,28.9,4,2,
11:15:00,29,7,2,
11:16:00,28.9,6,2,
11:17:00,28.8,6,2,
11:18:00,28.6,0,0,
11:19:00,29,6,1,����
11:20:00,29.9,8,1,
11:21:00,30.1,0,0,
11:22:00,30.1,0,0,���܂�
11:23:00,30.1,8,1,����
11:24:00,29.9,1,1,���܂�
11:25:00,29.9,3,1,
11:26:00,29.2,0,0,
11:27:00,29.4,0,0,
11:28:00,29.5,4,1,�܂�
11:29:00,28.9,6,1,
11:30:00,28,5,2,
